Regional Weather Roundup
Issued by NWS

Home | Current Version | Previous Version | Text Only | Print | Product List | Glossary Off
Versions: 1 2 3 4 5 6 7 8 9 10 11 12 13 14 15 16 17 18 19 20 21 22 23 24 25 26 27 28 29 30 31 32 33 34 35 36 37 38 39 40 41 42 43 44 45 46 47 48 49 50

000
ASUS43 KLMK 252010
RWRKY
KENTUCKY REGIONAL WEATHER ROUNDUP
NATIONAL WEATHER SERVICE LOUISVILLE KY
300 PM EST SAT FEB 25 2017

NOTE "FAIR" INDICATES FEW OR NO CLOUDS BELOW 12,000 FEET
WITH NO SIGNIFICANT WEATHER AND/OR OBSTRUCTIONS TO VISIBILITY.

KYZ001>023-026-027-061>063-070>075-252100-
WESTERN AND SOUTH CENTRAL KENTUCKY

CITY           SKY/WX    TMP DP  RH WIND       PRES   REMARKS
PADUCAH        SUNNY     43  17  35 W13G20    30.07S
HENDERSON      PTSUNNY   39  18  41 W13G23    30.05R WCI  32
OWENSBORO      MOSUNNY   40  20  44 NW17G23   30.04S WCI  31
HOPKINSVILLE   SUNNY     43  19  37 NW14G20   30.03S
BOWLING GREEN  MOSUNNY   43  18  36 NW12      30.03S
GLASGOW        MOSUNNY   40  22  48 W13G20    30.02R WCI  33
$$

KYZ024-025-028>034-038-045-046-053-252100-
NORTH CENTRAL KENTUCKY

CITY           SKY/WX    TMP DP  RH WIND       PRES   REMARKS
LOUISVILLE/SDF PTSUNNY   39  18  42 W16G22    30.00R WCI  30
LOUISVILLE/LOU CLOUDY    37  19  48 W12       30.00R WCI  29
FORT KNOX      PTSUNNY   37  21  51 W14G22    29.98R WCI  29
$$

KYZ035>037-039>044-047>052-055>060-089>105-252100-
NORTHEAST KENTUCKY

CITY           SKY/WX    TMP DP  RH WIND       PRES   REMARKS
LEXINGTON      CLOUDY    38  20  48 W18G26    29.95R WCI  28
COVINGTON      CLOUDY    33  19  56 W23G29    29.92R WCI  21
FRANKFORT      CLOUDY    36  17  46 W13G22    29.96R WCI  27
$$

KYZ054-064>069-076>088-106>120-252100-
SOUTHEAST KENTUCKY

CITY           SKY/WX    TMP DP  RH WIND       PRES   REMARKS
JACKSON        PTSUNNY   41  25  53 W12G18    29.89R
LONDON         MOSUNNY   43  23  45 W18G31    29.93R
SOMERSET       MOSUNNY   41  19  42 W18G24    29.99R
MIDDLESBORO    CLOUDY    48  28  45 NW7G24    29.91R
MONTICELLO     MOCLDY    43  23  45 NW17G23   29.98S
$$





USA.gov is the U.S. government's official web portal to all federal, state and local government web resources and services.